Location: Briis
(48.6240°N, 2.1211°E)
Time: 10:38:33
(UTC+00:00)

ATLAS 2AS CENTAUR R/B - Pass Details

Date: 25 September 2020
Orbit: 939 x 1273 km, 63.7° (Epoch: 19 October)

Event Time Altitude Azimuth Distance (km) Brightness Sun altitude
Rises 01:52:56 0° 313° (NW) 4,202 5.8 -34.8°
Reaches altitude 10° 01:56:03 10° 321° (NW) 3,201 5.3 -34.5°
Maximum altitude 02:03:12 39° 29° (NNE) 1,688 4.0 -33.7°
Drops below altitude 10° 02:09:51 10° 97° (E) 2,981 5.4 -32.9°
Sets 02:12:39 0° 105° (ESE) 3,885 6.0 -32.6°
